Theta_e
302 302 301 300 300 300 299 298 298 298 298 298 298 298 297 297 298 298 298 298 299 298 298 298 297 297 297 298 298 298 298 299 295 297 300 300 300 300 300 300 299 300 299
301 299 298 296 296 296 295 296 296 294 295 295 295 294 294 294 294 294 294 294 294 293 293 294 292 292 293 293 292 292 293 294 292 290 294 294 295 296 296 297 297 297 297
296 297 295 293 293 292 292 293 293 292 292 291 292 291 291 292 291 292 291 291 291 290 290 289 289 289 289 289 289 290 291 290 291 290 289 292 292 294 293 294 294 294 294
293 292 291 290 290 289 289 289 290 290 289 289 289 289 290 289 289 289 289 289 289 288 289 288 287 286 285 286 286 288 288 288 288 288 288 288 289 291 290 288 287 289 288
290 289 288 288 287 286 286 287 287 286 286 286 286 287 288 287 287 287 287 287 286 286 287 286 286 285 285 286 285 285 286 285 285 284 284 285 285 285 284 285 283 284 285
286 285 285 285 284 284 284 284 284 284 284 284 284 284 285 285 287 287 286 285 285 284 284 285 286 285 285 286 286 287 286 284 283 282 282 282 283 283 283 282 282 281 279
284 283 283 283 283 283 283 283 282 282 283 282 282 283 283 284 286 286 285 284 284 284 283 283 283 284 284 283 285 286 285 286 286 285 282 282 282 283 283 282 282 282 281
283 283 283 283 282 282 282 281 281 282 282 282 281 282 282 283 285 285 284 284 284 283 283 283 283 283 283 283 283 283 283 283 284 284 283 283 284 284 284 283 282 282 283
281 281 281 282 281 281 281 281 281 281 281 280 281 281 281 282 284 284 283 283 282 282 282 283 282 282 283 284 282 281 282 282 285 285 285 286 286 285 284 282 279 278 277
280 280 281 281 281 281 280 280 280 281 279 280 279 280 281 281 283 284 283 282 281 281 282 282 282 282 283 283 281 280 279 279 279 280 280 281 282 282 283 281 280 276 276
279 279 279 280 280 280 279 279 279 279 279 279 279 279 279 280 281 283 283 281 281 280 281 280 281 282 282 282 281 279 278 279 278 278 279 278 279 279 279 279 279 277 275
279 278 278 278 279 279 279 278 278 279 279 278 279 279 279 279 280 281 282 282 281 279 279 279 280 281 279 279 278 279 279 278 276 275 275 275 275 275 275 275 277 278 278
278 277 277 278 279 279 279 278 278 279 280 278 279 279 278 279 279 279 280 280 280 279 280 280 279 278 277 277 277 277 275 275 273 271 272 273 272 273 274 274 275 275 276
277 276 276 276 276 277 279 279 280 279 278 278 279 279 279 278 278 279 279 280 279 279 278 276 276 276 276 276 274 275 274 273 271 271 271 271 272 271 270 271 270 271 271
277 276 277 278 277 277 278 278 278 277 279 280 279 279 278 278 277 277 277 278 277 276 273 273 272 272 271 272 271 271 271 271 269 270 268 268 269 269 268 269 268 269 268
277 277 278 278 277 277 277 275 275 276 277 277 278 278 277 277 276 276 277 277 275 274 270 270 269 270 269 269 268 268 269 268 268 267 267 267 266 266 266 266 267 267 265
278 277 278 276 276 276 276 276 274 273 275 276 277 275 275 274 274 275 275 274 272 271 268 268 268 267 267 267 267 267 266 267 267 266 266 265 265 265 264 264 265 265 264
276 274 278 277 277 277 276 276 276 275 272 272 272 273 273 272 273 273 272 271 269 269 267 266 265 266 266 265 265 265 265 265 265 265 264 264 264 263 263 262 263 262 262
276 277 277 278 277 276 276 275 274 273 273 273 269 270 270 270 271 270 269 267 265 265 265 265 265 264 264 264 264 264 264 263 263 263 263 263 263 262 261 262 262 262 262
276 274 275 276 274 274 274 273 272 271 271 270 269 269 268 267 268 267 266 265 264 264 264 263 263 263 263 263 263 263 263 262 262 262 262 262 262 262 261 260 260 260 260
277 275 272 275 274 273 272 272 271 271 270 269 269 267 269 267 266 265 264 264 263 263 262 262 262 262 262 262 262 262 261 261 261 261 261 261 261 260 260 260 260 260 260
277 275 271 272 272 271 271 271 270 269 268 267 266 266 267 265 265 264 263 263 262 262 261 261 261 261 261 261 261 261 260 260 260 261 261 261 260 260 259 259 259 259 259
275 273 271 271 271 268 268 268 268 268 267 266 265 264 264 264 262 262 261 261 261 260 260 259 260 259 260 260 261 261 260 260 261 261 260 260 259 259 259 258 258 258 258
273 272 270 269 268 267 268 266 266 265 265 264 264 263 263 262 261 260 259 260 259 258 258 257 257 258 258 258 260 260 260 260 261 261 260 260 258 258 258 258 258 258 259
271 270 269 268 266 267 266 266 265 264 264 264 263 262 261 260 259 259 258 257 255 256 256 255 257 257 257 256 257 258 258 259 258 259 259 257 256 257 258 258 258 259 260
269 269 268 267 266 266 265 264 264 264 263 262 261 260 260 259 258 257 256 254 253 253 255 256 256 256 256 257 258 259 260 263 263 263 264 264 262 261 261 261 261 261 260
Wind_Speed
12 11 12 11 10 9 8 9 11 8 9 7 5 6 8 6 7 6 5 5 4 5 5 5 7 7 4 4 4 4 4 4 6 6 4 7 7 8 8 8 7 9 8
15 13 13 12 10 8 10 5 8 11 9 8 5 8 7 7 7 6 5 5 5 5 5 5 6 5 6 5 5 6 5 5 6 10 8 6 8 8 9 10 7 7 8
10 11 12 13 11 11 9 6 8 9 9 9 7 7 8 7 6 6 5 5 4 5 5 6 6 7 6 6 6 6 6 6 6 6 7 7 7 7 8 8 8 6 8
12 10 14 12 11 10 10 9 2 10 9 8 9 6 6 7 6 6 5 5 5 5 5 6 6 7 7 7 5 6 6 6 7 7 7 7 7 7 6 8 8 7 9
11 11 12 10 12 10 7 11 9 8 8 8 8 6 7 7 5 5 4 4 4 5 6 6 5 4 5 5 4 6 7 6 6 7 7 8 8 8 9 8 10 11 9
11 12 10 11 10 10 8 8 8 7 8 6 7 7 6 4 8 9 5 4 3 4 4 4 4 3 5 8 10 11 8 6 8 7 7 9 10 10 8 10 11 12 9
10 10 10 10 10 9 8 8 8 7 7 7 5 6 6 4 8 9 7 2 3 3 3 2 2 3 4 7 10 11 8 10 11 8 9 9 11 12 13 14 13 12 13
9 9 7 8 10 8 9 7 8 5 5 5 6 5 5 6 7 6 2 2 1 3 4 4 4 4 6 8 9 8 7 5 5 5 8 10 10 11 11 11 13 12 10
7 7 5 7 9 9 8 6 6 5 5 6 4 4 5 5 4 4 2 2 2 4 3 4 4 6 11 16 11 10 10 9 8 14 17 19 19 18 15 8 8 10 11
6 7 6 5 7 8 7 6 3 5 4 4 5 4 4 4 4 8 6 2 4 3 4 4 8 7 15 17 9 9 9 9 13 13 11 10 10 10 15 8 8 10 10
6 7 6 5 7 6 6 4 4 4 4 4 5 4 3 2 5 10 11 5 5 5 4 5 5 12 16 16 15 7 10 12 12 9 8 8 9 8 7 8 9 9 10
6 6 5 5 5 5 5 3 2 3 4 4 4 4 3 3 6 10 11 10 8 5 5 5 5 15 16 15 9 15 16 13 6 7 7 7 7 8 10 11 14 12 10
5 5 5 5 4 3 4 4 4 2 2 3 3 3 3 3 3 6 5 5 5 4 3 8 13 15 15 10 14 14 10 6 6 7 7 6 8 8 11 11 11 13 13
7 6 6 6 5 3 2 1 2 3 3 3 3 2 1 2 2 0 1 3 4 4 7 6 9 10 10 10 7 8 6 6 6 7 7 8 7 8 8 9 10 10 10
5 5 5 4 6 5 2 2 1 2 2 4 3 1 2 2 2 2 3 2 3 5 5 3 4 4 5 5 5 6 6 6 7 7 8 8 8 8 8 9 9 10 10
7 6 6 5 5 4 4 4 2 4 0 2 1 1 3 3 2 3 3 5 8 10 2 3 4 4 4 5 5 6 6 6 6 7 8 8 8 9 9 9 9 9 10
6 6 5 4 5 5 4 4 4 2 1 2 5 4 2 4 2 2 5 6 6 5 1 2 3 4 5 5 6 6 7 7 7 7 7 8 9 9 10 9 9 9 10
5 4 5 5 5 4 4 4 3 5 5 4 4 3 5 1 2 4 5 2 1 2 2 3 4 4 5 5 6 6 7 7 7 7 8 8 8 8 10 10 10 11 11
7 6 6 4 4 4 4 4 4 4 3 4 3 3 2 1 0 4 5 3 2 3 3 3 3 4 4 5 5 6 7 7 7 8 7 7 8 8 9 10 10 14 14
7 6 7 6 5 5 5 5 5 4 4 4 3 3 3 2 1 1 1 2 1 2 2 2 3 3 3 4 5 6 6 7 7 7 7 7 8 8 9 10 10 11 10
5 5 5 5 5 5 5 5 5 5 5 4 3 3 3 2 1 1 1 0 1 1 2 2 3 3 3 4 5 5 6 7 7 7 7 7 8 8 9 9 10 11 11
4 5 5 5 5 5 5 4 4 4 4 4 4 4 3 1 1 1 1 1 1 1 2 2 3 4 4 4 5 6 7 8 8 8 8 8 8 9 8 9 10 10 10
5 6 6 6 5 6 5 5 5 5 5 4 4 3 3 2 1 1 0 0 1 1 2 2 4 5 4 4 4 5 7 8 8 8 9 9 9 9 9 10 10 10 10
6 7 7 6 6 6 6 6 5 5 6 5 4 3 3 2 1 0 1 1 1 2 2 3 3 6 6 6 6 7 7 9 8 9 11 10 9 10 9 10 11 12 12
4 5 6 6 6 6 6 6 6 6 5 5 4 3 3 2 1 1 1 1 2 3 4 4 4 7 8 9 11 13 14 17 12 12 9 11 12 14 13 11 13 12 13
6 6 5 5 6 6 6 6 5 5 4 4 4 3 2 1 0 1 1 2 2 3 6 5 6 9 10 10 12 14 15 17 14 16 11 10 11 11 11 13 16 11 13
Wind_Direction
101 100 100 92 84 88 100 108 104 94 63 51 57 79 81 66 51 50 56 35 48 53 33 26 33 18 7 1 345 331 320 314 282 300 330 305 311 328 319 317 321 318 324
115 114 101 88 85 72 68 88 87 105 101 92 75 66 68 66 68 62 58 44 51 51 28 22 27 4 359 1 341 333 321 313 303 302 315 322 314 319 311 318 321 319 323
103 114 109 109 103 99 98 60 111 108 101 95 87 84 84 63 57 62 53 43 47 53 36 30 21 10 9 357 350 344 338 332 321 302 308 315 310 319 330 320 317 327 318
113 108 104 103 105 108 95 124 95 91 91 85 80 69 66 71 57 56 43 39 40 48 46 43 37 29 14 354 347 345 341 328 322 314 314 314 318 335 325 329 326 323 322
112 104 105 110 112 99 87 87 77 72 82 74 82 78 66 58 45 40 52 56 40 43 44 37 56 52 16 9 350 348 340 335 327 331 315 321 331 335 337 336 324 326 324
100 101 101 96 98 105 105 108 96 93 85 93 98 99 89 76 57 51 45 56 58 53 44 26 32 50 345 2 352 341 332 331 326 317 321 312 320 330 323 323 320 328 327
104 107 110 113 107 108 98 88 90 91 97 99 91 90 88 75 48 46 24 40 45 51 44 29 27 21 21 351 337 332 330 319 306 303 298 306 316 317 318 316 315 310 304
95 92 102 105 104 106 100 102 102 104 111 114 94 98 99 64 42 26 4 36 54 59 33 33 17 8 30 349 331 331 319 316 293 310 306 301 299 305 307 309 307 301 297
107 110 101 119 118 101 104 111 109 129 101 81 87 99 104 86 68 44 82 67 55 51 35 32 13 7 356 344 345 329 326 318 335 322 313 310 316 318 320 318 315 319 313
129 111 99 94 116 126 120 106 88 71 106 117 114 102 76 122 89 52 46 35 38 23 24 8 13 358 348 345 337 333 319 334 331 328 323 323 331 324 326 331 327 320 318
118 116 110 107 92 100 100 92 118 142 127 113 119 114 122 67 61 47 42 38 25 4 352 353 356 344 341 334 333 326 334 328 326 316 318 327 328 332 335 335 326 317 309
105 105 118 105 90 88 97 128 137 144 145 138 143 148 122 88 45 40 32 24 10 345 337 338 335 332 329 334 345 345 338 341 337 327 327 325 336 340 334 327 319 309 294
100 86 82 76 83 105 152 160 169 170 138 131 134 107 86 75 53 29 357 343 339 321 345 333 329 334 343 351 347 345 353 345 344 328 323 341 336 325 325 322 318 312 305
137 143 144 152 152 158 168 170 159 170 140 114 106 118 119 130 100 33 325 321 319 350 360 328 337 342 341 335 345 352 347 345 335 320 344 330 324 326 326 323 319 316 310
129 141 154 159 183 167 156 148 149 66 358 128 113 101 208 152 104 354 324 321 14 344 349 344 343 346 342 343 340 337 335 340 338 346 336 326 327 325 322 327 320 315 321
164 171 178 171 168 174 171 162 75 42 92 116 82 331 132 84 47 310 313 14 13 6 359 351 340 337 328 332 333 333 337 338 342 335 320 325 324 324 324 322 318 318 317
184 178 172 180 179 179 181 168 141 80 262 172 142 111 101 65 306 316 31 18 29 18 12 331 324 334 333 337 335 334 329 336 331 323 325 326 319 317 318 317 316 314 312
202 174 179 184 179 173 170 178 179 173 178 168 130 145 135 246 311 63 27 29 58 23 4 349 336 334 333 333 334 332 326 324 327 324 320 308 312 312 315 314 315 315 314
193 195 191 173 167 165 160 161 172 171 173 150 144 170 156 22 98 55 36 53 23 360 5 341 337 328 328 326 322 317 316 312 307 299 301 308 313 312 306 305 305 308 306
199 186 170 169 156 169 168 169 168 173 167 173 179 158 140 188 165 83 54 36 8 348 332 312 308 313 315 311 306 304 299 298 298 302 305 304 302 298 297 299 297 300 299
180 164 170 168 169 173 167 179 175 173 176 169 149 126 179 131 118 107 105 20 352 320 309 307 310 307 298 292 293 291 294 294 296 298 298 292 292 291 290 290 293 292 294
163 157 171 183 162 168 174 170 166 163 154 152 141 149 130 119 109 62 19 17 338 298 287 300 301 291 288 283 286 290 291 292 292 289 286 287 286 285 288 288 290 291 292
170 167 168 168 165 149 156 157 159 158 148 133 124 129 143 130 121 136 236 290 288 295 294 278 280 280 276 274 280 285 284 281 280 285 285 284 284 284 285 288 288 288 287
170 172 168 163 156 163 158 153 144 134 136 139 144 141 141 137 139 156 244 278 316 294 282 263 253 271 285 286 281 275 271 272 275 280 284 282 281 282 278 277 276 277 281
156 157 157 155 153 156 144 147 148 146 140 140 138 139 130 123 108 338 337 314 290 283 279 278 275 279 283 281 279 278 276 280 275 270 265 258 259 263 264 270 271 270 273
150 145 140 141 150 146 148 141 137 135 140 135 127 121 116 121 156 271 266 261 262 265 276 275 278 279 282 284 279 278 282 286 288 279 268 259 258 266 267 269 270 273 274